Regional Weather Roundup
Issued by NWS Midland/Odessa, TX

Home | Current Version | Previous Version | Text Only | Print | Product List | Glossary On
Versions: 1 2 3 4 5 6 7 8 9 10 11 12 13 14 15 16 17 18 19 20 21 22 23 24 25 26 27 28 29 30 31 32 33 34 35 36 37 38 39 40 41 42 43 44 45 46 47 48 49 50
000
ASUS44 KMAF 281010
RWRMAF
MIDLAND AREA WEATHER ROUNDUP
NATIONAL WEATHER SERVICE MIDLAND TX
500 AM CDT TUE APR 28 2015

...IN SOUTHWEST TEXAS AND SOUTHEAST NEW MEXICO...

CITY           SKY/WX    TMP DP  RH WIND       PRES   REMARKS
ALPINE         PTCLDY    41  32  69 N22G29    30.22R WCI  31
ANDREWS        CLOUDY    44  38  79 N14G22    30.15R WCI  37
ARTESIA        PTCLDY    43  36  75 N12       30.25R WCI  37
BIG SPRING     CLOUDY    48  41  77 N16       30.12R
CARLSBAD       CLOUDY    48  34  58 N21G31    30.21R
DRYDEN           N/A     51  36  56 NW15G21   30.11R
FORT STOCKTON  CLOUDY    48  36  63 NW16      30.17R
GUAD PASS      CLOUDY    38  28  67 NE18      30.22R WCI  28
HOBBS          CLOUDY    41  37  87 N17       30.18R WCI  32
MARFA          PTCLDY    39  28  65 N18       30.17R WCI  30
MIDLAND AIRPK  CLOUDY    47  40  77 N15G21    30.13S
MIDLAND INTL   CLOUDY    44  42  93 NW16      30.13R WCI  37
ODESSA         CLOUDY    44  39  82 N16G24    30.14R WCI  37
PECOS          CLOUDY    49  35  57 NW16      30.20R
PRESIDIO       FAIR      49  32  50 W5        30.16R
SEMINOLE       CLOUDY    44  37  77 N14G25    30.17R WCI  37
SNYDER         CLOUDY    46  44  94 N20G25    30.07R WCI  38
WINK           CLOUDY    49  35  58 N15       30.17R
$$
...OTHER STATIONS IN TEXAS...

CITY           SKY/WX    TMP DP  RH WIND       PRES   REMARKS
ABILENE        RAIN      50  49  96 N18       30.01R FOG
AMARILLO       CLOUDY    41  39  93 NW12      30.19R WCI  34
AUSTIN         CLOUDY    63  58  83 N6        29.87R
BROWNSVILLE    MOCLDY    72  71  97 NW6       29.78R FOG
CORPUS CHRISTI CLOUDY    72  70  93 NW9       29.80R
DALLAS FTW     MOCLDY    54  47  77 NE10      29.93R
DEL RIO        CLEAR     55  37  50 NW22G36   30.03S
EL PASO        PTCLDY    49  30  48 N6        30.21R
HOUSTON INT    PTCLDY    64  60  87 NE6       29.79R
LUBBOCK        CLOUDY    43  40  89 N21G26    30.13R WCI  34
SAN ANGELO     CLOUDY    51  43  74 NW18      30.02R
SAN ANTONIO    CLEAR     62  47  57 NW16G25   29.90R
WACO           LGT RAIN  54  53  97 N12       29.89R FOG
WICHITA FALLS  NOT AVBL
$$
...OTHER LOCATIONS IN NEW MEXICO...

CITY           SKY/WX    TMP DP  RH WIND       PRES   REMARKS
ALAMAGORDO     PTCLDY    46  32  57 SE3       30.22R
ALBUQUERQUE    CLOUDY    45  40  82 SE7       30.27R
CANNON AFB     PTCLDY    38  36  92 N10       30.20R WCI  31
CLOVIS         MOCLDY    37  34  87 N12       30.20S WCI  30
HOLLOMAN AFB   PTCLDY    43  30  60 N6        30.21R WCI  39
ROSWELL        CLOUDY    45  35  68 N8        30.24R
RUIDOSO        PTCLDY    32  27  80 NW6       30.29R WCI  26
SANTA FE       CLEAR     36  30  79 NE3       30.27R
TRUTH OR CONSE CLEAR     46  33  60 N8        30.26R
TUCUMCARI      CLOUDY    43  38  82 NW10      30.23R WCI  37
$$


USA.gov is the U.S. government's official web portal to all federal, state and local government web resources and services.